When you browse on this site, cookies collect data to enhance your experience and personalize the content and advertising you see.
Visit our Privacy Policy to learn more. By continuing to use the site, you agree to this use of cookies and data.
  • En España
  • Lista de países
  • Para 7 días
  • Temperatura del agua
  • El tiempo en el mapa
  • Informadores
  • user-avatar
    Iniciar sesión

    Tiempo cada hora Trashigang

    Hoy, 17 Febrero, Lunes

    Tiempo Temperatura Precipitaciones Viento Presión Humedad
    00:00 +10°C° 0 mm 0 mps 628 mmHg 91%
    01:00 +10°C° 0 mm 0 mps 628 mmHg 91%
    02:00 +10°C° 0 mm 0 mps 627 mmHg 91%
    03:00 +10°C° 0 mm 0 mps 627 mmHg 91%
    04:00 +9°C° 0 mm 0 mps 627 mmHg 89%
    05:00 +9°C° 0 mm 0 mps 627 mmHg 88%
    06:00 +10°C° 0 mm 1 mps 626 mmHg 86%
    07:00 +11°C° 0 mm 1 mps 627 mmHg 80%
    08:00 +13°C° 0 mm 1 mps 628 mmHg 75%
    09:00 +15°C° 0 mm 1 mps 629 mmHg 69%
    10:00 +16°C° 0.1 mm 1 mps 629 mmHg 67%
    11:00 +16°C° 0.1 mm 2 mps 629 mmHg 64%
    12:00 +17°C° 0.1 mm 2 mps 629 mmHg 62%
    13:00 +17°C° 0.2 mm 2 mps 628 mmHg 66%
    14:00 +16°C° 0.2 mm 2 mps 627 mmHg 69%
    15:00 +16°C° 0.2 mm 2 mps 627 mmHg 73%
    16:00 +14°C° 0.3 mm 2 mps 627 mmHg 81%
    17:00 +13°C° 0.3 mm 1 mps 626 mmHg 88%
    18:00 +12°C° 0.3 mm 1 mps 626 mmHg 96%
    19:00 +11°C° 0.2 mm 1 mps 626 mmHg 95%
    20:00 +10°C° 0.2 mm 0 mps 627 mmHg 95%
    21:00 +10°C° 0.2 mm 0 mps 627 mmHg 94%
    22:00 +10°C° 0.3 mm 0 mps 627 mmHg 94%
    23:00 +10°C° 0.3 mm 0 mps 627 mmHg 94%

    Mañana, 18 Febrero, Martes

    Tiempo Temperatura Precipitaciones Viento Presión Humedad
    00:00 +10°C° 0.3 mm 0 mps 627 mmHg 94%
    01:00 +10°C° 0.4 mm 0 mps 626 mmHg 94%
    02:00 +10°C° 0.4 mm 0 mps 626 mmHg 94%
    03:00 +9°C° 0.4 mm 0 mps 626 mmHg 94%
    04:00 +9°C° 0.4 mm 0 mps 626 mmHg 94%
    05:00 +9°C° 0.4 mm 0 mps 626 mmHg 94%
    06:00 +9°C° 0.4 mm 0 mps 626 mmHg 94%
    07:00 +10°C° 0.1 mm 0 mps 627 mmHg 90%
    08:00 +11°C° 0.1 mm 0 mps 627 mmHg 86%
    09:00 +12°C° 0.1 mm 0 mps 628 mmHg 82%
    10:00 +14°C° 0.1 mm 1 mps 628 mmHg 76%
    11:00 +16°C° 0.1 mm 1 mps 628 mmHg 70%
    12:00 +17°C° 0.1 mm 2 mps 628 mmHg 64%
    13:00 +17°C° 0.2 mm 2 mps 628 mmHg 65%
    14:00 +17°C° 0.2 mm 2 mps 627 mmHg 67%
    15:00 +17°C° 0.2 mm 2 mps 627 mmHg 69%
    16:00 +15°C° 0.2 mm 2 mps 626 mmHg 78%
    17:00 +13°C° 0.2 mm 1 mps 626 mmHg 87%
    18:00 +12°C° 0.2 mm 1 mps 625 mmHg 96%
    19:00 +12°C° 0.1 mm 1 mps 626 mmHg 96%
    20:00 +11°C° 0.1 mm 0 mps 627 mmHg 95%
    21:00 +10°C° 0.1 mm 0 mps 627 mmHg 95%
    22:00 +10°C° 0 mm 0 mps 627 mmHg 94%
    23:00 +10°C° 0 mm 0 mps 627 mmHg 94%

    Pasado mañana, 19 Febrero, Miércoles

    Tiempo Temperatura Precipitaciones Viento Presión Humedad
    00:00 +10°C° 0 mm 0 mps 627 mmHg 93%
    01:00 +10°C° 0 mm 0 mps 627 mmHg 92%
    02:00 +10°C° 0 mm 0 mps 626 mmHg 91%
    03:00 +10°C° 0 mm 1 mps 626 mmHg 90%
    04:00 +10°C° 0 mm 1 mps 626 mmHg 89%
    05:00 +10°C° 0 mm 1 mps 626 mmHg 88%
    06:00 +10°C° 0 mm 1 mps 626 mmHg 87%
    07:00 +11°C° 0.1 mm 1 mps 627 mmHg 83%
    08:00 +11°C° 0.1 mm 0 mps 628 mmHg 80%
    09:00 +12°C° 0.1 mm 0 mps 629 mmHg 77%
    10:00 +15°C° 0.4 mm 1 mps 629 mmHg 73%
    11:00 +16°C° 0.4 mm 1 mps 629 mmHg 69%
    12:00 +17°C° 0.4 mm 2 mps 629 mmHg 65%
    13:00 +17°C° 0.6 mm 2 mps 628 mmHg 68%
    14:00 +16°C° 0.6 mm 2 mps 627 mmHg 71%
    15:00 +16°C° 0.6 mm 2 mps 626 mmHg 73%
    16:00 +14°C° 0.4 mm 2 mps 626 mmHg 81%
    17:00 +13°C° 0.4 mm 1 mps 626 mmHg 88%
    18:00 +11°C° 0.4 mm 1 mps 626 mmHg 95%
    19:00 +11°C° 0.2 mm 1 mps 626 mmHg 95%
    20:00 +11°C° 0.2 mm 0 mps 627 mmHg 94%
    21:00 +11°C° 0.2 mm 0 mps 628 mmHg 93%
    22:00 +10°C° 0.5 mm 0 mps 628 mmHg 93%
    23:00 +11°C° 0.5 mm 1 mps 627 mmHg 93%

    20 Febrero, Jueves

    Tiempo Temperatura Precipitaciones Viento Presión Humedad
    00:00 +11°C° 0.5 mm 1 mps 627 mmHg 93%
    01:00 +11°C° 0.2 mm 1 mps 627 mmHg 92%
    02:00 +10°C° 0.2 mm 1 mps 627 mmHg 92%
    03:00 +10°C° 0.2 mm 1 mps 626 mmHg 91%
    04:00 +10°C° 0 mm 1 mps 626 mmHg 90%
    05:00 +10°C° 0 mm 1 mps 627 mmHg 89%
    06:00 +9°C° 0 mm 0 mps 627 mmHg 88%
    07:00 +10°C° 0 mm 0 mps 628 mmHg 85%
    08:00 +11°C° 0 mm 0 mps 628 mmHg 81%
    09:00 +12°C° 0 mm 0 mps 629 mmHg 78%
    10:00 +14°C° 0.1 mm 1 mps 629 mmHg 73%
    11:00 +15°C° 0.1 mm 1 mps 629 mmHg 68%
    12:00 +16°C° 0.1 mm 2 mps 629 mmHg 63%
    13:00 +16°C° 0.2 mm 2 mps 628 mmHg 65%
    14:00 +16°C° 0.2 mm 2 mps 628 mmHg 68%
    15:00 +15°C° 0.2 mm 2 mps 627 mmHg 70%
    16:00 +14°C° 0.2 mm 2 mps 627 mmHg 78%
    17:00 +13°C° 0.2 mm 1 mps 627 mmHg 85%
    18:00 +12°C° 0.2 mm 1 mps 627 mmHg 93%
    19:00 +11°C° 0.1 mm 1 mps 628 mmHg 93%
    20:00 +11°C° 0.1 mm 1 mps 628 mmHg 93%
    21:00 +10°C° 0.1 mm 0 mps 629 mmHg 93%
    22:00 +11°C° 0.1 mm 1 mps 629 mmHg 92%
    23:00 +11°C° 0.1 mm 1 mps 629 mmHg 91%

    21 Febrero, Viernes

    Tiempo Temperatura Precipitaciones Viento Presión Humedad
    00:00 +11°C° 0.1 mm 1 mps 629 mmHg 90%
    01:00 +10°C° 0 mm 1 mps 629 mmHg 89%
    02:00 +10°C° 0 mm 1 mps 628 mmHg 89%
    03:00 +10°C° 0 mm 1 mps 628 mmHg 88%
    04:00 +10°C° 0 mm 1 mps 628 mmHg 87%
    05:00 +9°C° 0 mm 1 mps 628 mmHg 87%
    06:00 +9°C° 0 mm 1 mps 629 mmHg 86%
    07:00 +11°C° 0 mm 1 mps 630 mmHg 79%
    08:00 +14°C° 0 mm 1 mps 631 mmHg 72%
    09:00 +16°C° 0 mm 1 mps 633 mmHg 65%
    10:00 +18°C° 0.1 mm 1 mps 633 mmHg 62%
    11:00 +18°C° 0.1 mm 1 mps 633 mmHg 59%
    12:00 +18°C° 0.1 mm 2 mps 633 mmHg 56%
    19:00 +12°C° 0.1 mm 1 mps 629 mmHg 87%
    20:00 +12°C° 0.1 mm 1 mps 630 mmHg 87%
    21:00 +11°C° 0.1 mm 1 mps 630 mmHg 87%
    22:00 +11°C° 0 mm 1 mps 630 mmHg 86%
    23:00 +11°C° 0 mm 1 mps 630 mmHg 85%

    22 Febrero, Sábado

    Tiempo Temperatura Precipitaciones Viento Presión Humedad
    00:00 +10°C° 0 mm 1 mps 630 mmHg 84%
    01:00 +10°C° 0 mm 1 mps 629 mmHg 83%
    02:00 +10°C° 0 mm 1 mps 629 mmHg 83%
    03:00 +10°C° 0 mm 1 mps 629 mmHg 82%
    04:00 +10°C° 0 mm 1 mps 628 mmHg 82%
    05:00 +9°C° 0 mm 1 mps 628 mmHg 82%
    06:00 +9°C° 0 mm 1 mps 628 mmHg 81%
    07:00 +11°C° 0 mm 1 mps 629 mmHg 76%
    08:00 +13°C° 0 mm 1 mps 631 mmHg 70%
    09:00 +14°C° 0 mm 0 mps 632 mmHg 64%
    10:00 +16°C° 0.2 mm 1 mps 631 mmHg 63%
    11:00 +18°C° 0.2 mm 1 mps 631 mmHg 62%
    12:00 +17°C° 0.2 mm 2 mps 631 mmHg 60%
    13:00 +17°C° 0.5 mm 2 mps 630 mmHg 63%
    14:00 +16°C° 0.5 mm 2 mps 629 mmHg 66%
    15:00 +16°C° 0.5 mm 2 mps 628 mmHg 69%
    16:00 +14°C° 0.2 mm 1 mps 628 mmHg 74%
    17:00 +13°C° 0.2 mm 1 mps 628 mmHg 80%
    18:00 +12°C° 0.2 mm 1 mps 627 mmHg 86%
    19:00 +12°C° 0.1 mm 1 mps 628 mmHg 87%
    20:00 +11°C° 0.1 mm 1 mps 629 mmHg 88%
    21:00 +11°C° 0.1 mm 1 mps 629 mmHg 88%
    22:00 +11°C° 0.3 mm 1 mps 629 mmHg 89%
    23:00 +11°C° 0.3 mm 1 mps 629 mmHg 89%
    Mostrar más